Current Version              Previous Version:    01  02  03  04  05  06  07  08  09  10  11  12  13  14  15  16  17  18  19  20  21  22  23  24  25  26  27  28  29  30  
   31  32  33  34  35  36  37  38  39  40  41  42  43  44  45  46  47  48  49  50  51  52  53  54  55  56  57  58  59  60  

[Printable]
543
ASUS44 KFWD 181015
RWRTX
NORTH TEXAS HOURLY WEATHER ROUNDUP
NATIONAL WEATHER SERVICE FORT WORTH TX
500 AM CDT THU SEP 18 2014

NOTE: "FAIR" INDICATES FEW OR NO CLOUDS BELOW 12,000 FEET WITH NO
SIGNIFICANT WEATHER AND/OR OBSTRUCTIONS TO VISIBILITY.

TXZ118-119-181100-
DALLAS/FORT WORTH METROPLEX

CITY           SKY/WX    TMP DP  RH WIND       PRES   REMARKS
DFW AIRPORT    MOCLDY    75  71  87 E5        29.88F
DALLAS LOVE    CLOUDY    76  71  85 CALM      29.89S
FTW MEACHAM    CLOUDY    75  70  84 S5        29.87F
DAL-EXECUTIVE  MOCLDY    75  71  87 CALM      29.88F
FTW-ALLIANCE   CLOUDY    74  71  91 CALM      29.88S
FTW-NAS-JRB    CLOUDY    78  69  73 S5        29.92F
FTW-SPINKS     CLOUDY    72  70  92 CALM      29.90S
ARLINGTON      MOCLDY    74  70  87 E3        29.88F
GRAND PRAIRIE  CLOUDY    74  72  95 CALM      29.89F
ADDISON        MOCLDY    76  70  82 E3        29.91S
MESQUITE       MOCLDY    73  72  96 CALM      29.90R
LANCASTER      MOCLDY    73  70  93 CALM      29.90S
$$

TXZ091>094-102>105-117-120-121-131>134-181100-
NORTH CENTRAL TEXAS

CITY           SKY/WX    TMP DP  RH WIND       PRES   REMARKS
SHRMAN/DENISON MOCLDY    71  65  80 CALM      29.90S
GAINESVILLE    MOCLDY    73  71  91 E5        29.92S
BOWIE          CLOUDY    71  70  96 CALM      29.89F
BRIDGEPORT     CLOUDY    73  73 100 CALM      29.91S
DECATUR        CLOUDY    73  71  95 CALM      29.90F
DENTON         MOCLDY    74  71  91 E6        29.89R
MCKINNEY       MOCLDY    73  68  84 SE8       29.89F
GREENVILLE     CLOUDY    72  64  78 E6        29.89F
ROCKWALL       MOCLDY    74  71  91 E5        29.89S
TERRELL        CLOUDY    76  73  91 NE6       29.91R
WAXAHACHIE     MOCLDY    73  71  94 CALM      29.90S
CLEBURNE       CLOUDY    72  72 100 CALM      29.90F
GRANBURY       CLOUDY    74  71  88 E3        29.90S
$$

TXZ083>090-098>101-113>116-127>130-139>142-154-155-181100-
WESTERN NORTH TEXAS

CITY           SKY/WX    TMP DP  RH WIND       PRES   REMARKS
WICHITA FALLS  CLOUDY    71  70  96 S3        29.89F
WF-KICKAPOO    CLOUDY    73  69  89 CALM      29.91S
VERNON         CLOUDY    74  68  80 CALM      29.91F
ABILENE        CLOUDY    73  69  87 S8        29.90F
ABILENE-DYESS  CLOUDY    72  67  84 S6        29.89S
BRECKENRIDGE   CLOUDY    74  73  95 CALM      29.89S
GRAHAM         CLOUDY    73  69  90 CALM      29.88S
MINERAL WELLS  CLOUDY    73  71  93 CALM      29.88S
STEPHENVILLE   CLOUDY    71  69  91 CALM      29.93S
COMANCHE       MOCLDY    70  70 100 CALM      29.91S
BROWNWOOD      CLOUDY    70  68  94 SE5       29.90F
COLEMAN        MOCLDY    72  70  94 S3        29.91F
BRADY          CLEAR     70  70 100 SE5       29.91F
$$

TXZ143>147-156>162-174-175-181100-
CENTRAL TEXAS

CITY           SKY/WX    TMP DP  RH WIND       PRES   REMARKS
WACO           CLOUDY    74  72  93 NE5       29.89R
WACO-MCGREGOR  CLOUDY    73  68  83 CALM      29.90R
HILLSBORO      CLOUDY    73  71  93 S5        29.89S
CORSICANA      CLOUDY    74  72  93 E3        29.90S
MEXIA          CLOUDY    73  73  98 CALM      29.88F
HEARNE         CLOUDY    74  74  98 CALM      29.88S
CAMERON        CLOUDY    75  74  97 CALM      29.87S
TEMPLE         CLOUDY    73  70  88 CALM      29.87S
KILLEEN        CLOUDY    73  70  88 CALM      29.89R
KILLEEN-SKYLRK CLOUDY    72  68  88 CALM      29.88S
FORT HOOD      CLOUDY    75  72  90 CALM      29.88S
GATESVILLE     CLOUDY    72  72 100 CALM      29.91S
HAMILTON       MOCLDY    71  71 100 S8        29.91S
LAMPASAS       CLOUDY    71  69  96 CALM      29.89R
$$

TXZ095>097-106>112-122>126-135>138-148>153-164>167-181100-
EAST TEXAS

CITY           SKY/WX    TMP DP  RH WIND       PRES   REMARKS
PARIS          CLOUDY    70  63  78 E5        29.85S
SULPHUR SPRNGS MOCLDY    73  66  78 S6        29.89F
MOUNT PLEASANT CLOUDY    72  70  92 CALM      29.90S
GILMER         CLOUDY    73  73 100 CALM      29.91S
MINEOLA        MOCLDY    73  72  94 CALM      29.91S
TYLER          CLOUDY    75  71  87 CALM      29.89S
LONGVIEW       CLOUDY    73  70  90 CALM      29.88S
MARSHALL       CLOUDY    75  72  91 CALM      29.90F
ATHENS         CLOUDY    72  70  94 CALM      29.89R
PALESTINE      CLOUDY    74  74 100 CALM      29.90S
JACKSONVILLE   CLOUDY    74  73  96 CALM      29.92R FOG
HENDERSON      CLOUDY    72  72  99 S3        29.89F
NACOGDOCHES    CLOUDY    73  72  94 CALM      29.90R
LUFKIN         LGT RAIN  75  72  90 CALM      29.89S VSB 1/2
$$

SUPPLEMENTAL OBSERVATIONS (CENTRAL)

CITY           SKY/WX    TMP DP  RH WIND       PRES   REMARKS
LAKE TEXOMA      N/A     70  64  83 SE3         N/A
CADDO GRASSLND   N/A     68  64  88 NW2         N/A
PAT MAYSE LAKE   N/A     70  68  94 SW2         N/A
GREENVILLE       N/A     70  66  88 S7          N/A
CEDAR HILL       N/A     72  68  88 SE1         N/A
ATHENS           N/A     73  68  83 S2          N/A
PALESTINE        N/A     73  72  94 S1          N/A
LAKE LIMESTONE   N/A     73  72  94 E1          N/A
MCGREGOR         N/A     73  72  94 NE2         N/A
TEMPLE           N/A     73  70  88 NE3         N/A
$$

SUPPLEMENTAL OBSERVATIONS (WEST)

CITY           SKY/WX    TMP DP  RH WIND       PRES   REMARKS
MILLERS CREEK    N/A     73  68  83 E1          N/A
POSSUM KINGDOM   N/A     72  68  88 S5          N/A
LBJ GRASSLAND    N/A     73  70  88 E3          N/A
GRANBURY         N/A     73  68  83 E2          N/A
COMANCHE         N/A     70  68  94 E3          N/A
HAMBY            N/A     72  66  83 SE5         N/A
IVIE RESERVOIR   N/A     73  68  83 SE9         N/A
COLORADO BEND    N/A     72  66  83 S5          N/A
$$

SUPPLEMENTAL OBSERVATIONS (EAST)

CITY           SKY/WX    TMP DP  RH WIND       PRES   REMARKS
CLARKSVILLE      N/A     70  66  88 S6          N/A
TEXARKANA        N/A     72  68  88 CALM        N/A
LINDEN           N/A     73  68  83 CALM        N/A
GILMER           N/A     73  70  88 CALM        N/A
HENDERSON        N/A     72  68  88 SW5         N/A
LUFKIN           N/A     73  72  94 MISG        N/A
N SABINE NF      N/A     72  68  88 MISG        N/A
S SABINE NF      N/A     72  70  94 CALM        N/A
$$

SUPPLEMENTAL OBSERVATIONS ARE A COLLECTION OF AUTOMATED INSTRUMENTS
THAT ARE MAINTAINED BY A VARIETY OF FEDERAL AND STATE AGENCIES.
CERTAIN ELEMENTS...SUCH AS HUMIDITY VALUES AND SUSTAINED WIND
SPEEDS...MAY BE APPROXIMATED.